COSMOS 2251 DEB, 34304

Orbit data source: Space-Track

COSMOS 2251 DEB, 34304 is space debris in LEO originally from a launch on Wed, 16 Jun 1993 UTC launched from the Plesetsk Missile And Space Complex (PKMTR). The debris from Iridium 33, an American commercial communications satellite, has been tracked extensively since its accidental collision with the defunct Russian satellite Cosmos 2251 in 2009. This event, occurring at high speed in low Earth orbit (LEO), generated thousands of pieces of space debris, significantly increasing the risk of further collisions. The Iridium 33 debris cloud has impacted space traffic management and orbital debris mitigation strategies, making it a subject of ongoing study in space situational awareness.

Loading next visibility...
Identifier
34304, 1993-036NA
Orbit
LEO
Country
Flag of CISCIS
Related business
Manufacturer
Unknown
Mission
Spacecraft
Bus & Motor
Unknown
Mass
Unknown
Launch date (UTC)
1993-06-16 (33 years ago)
Launch vehicle
Unknown
Launch site
Plesetsk Missile And Space Complex (PKMTR)
Object type
Payload
Rocket body
Debris
Shape & HBR
Unknown shape, 0.1 m
Radar Cross Section
Medium (>0.1 m² and <1 m²)

Expand to show TLE details & history
Last TLE update: 13 hours ago

TLE from 13 hours ago
0 COSMOS 2251 DEB
1 34304U 93036NA  26236.38428469  .00002414  00000-0  71397-3 0  9999
2 34304  74.0134  12.1507 0125994  88.4047 291.4506 14.39450732909599
Epoch: 2026-08-24T09:13Z
TLE epoch observation values (Epoch: 2026-08-24T09:13:22.197Z)
Latitude
17.76117°
Longitude
-93.6215°
Altitude
730.443 km
Speed
7.508 km/s
True Right ascension
01h 09m 33s
True Declination
17° 39' 40"
Sunlit
Object was in full shadow at epoch
Visualization orbit readout
Latitude
Unknown
Longitude
Unknown
Altitude
Unknown
Speed
Unknown
Apparent Right ascension
Unknown
Apparent Declination
Unknown
Sunlit
N/A
Visualization observer readout
Local Sidereal Time
13:48:16
Azimuth
Unknown
Elevation
Unknown
Doppler factor
Unknown
Orbital elements
Apogee altitude
847.846 km
Perigee altitude
668.025 km
Semi-major axis
7,136.072 km
Eccentricity
0.0126
Inclination
74.0134°
RAAN
12.1507°
Arg. of periapsis
88.4047°
True anomaly
290.09916°
Mean anomaly
291.4506°
Eccentric anomaly
290.77565°
Mean motion
3.60043 °/min
Orbital period
99.99 mins
BSTAR
0.00071397
Loading maneuver chart data...
Computing Atmospheric mass density...

Documentation

Showing up to 5 results
|